Powrót do katalogu

CTC-1A

AktywnyŁącznośćSSO
NORAD 66773·PAYLOAD·🇺🇸 United States
Ta nazwa satelity nie została jeszcze potwierdzona przez oficjalne źródła.

Wystrzelony Nov 28, 2025 z Vandenberg Space Force Base

Loading…

Następne Przeloty (najbliższe 24 godziny)

TLE

ŚwieżeSource: Space-Track

Epoka: Sep 13, 2026, 18:36 UTC

1 66773U 25276DM  26256.77516563  .00003227  00000-0  14787-3 0  9996
2 66773  97.4149 329.2977 0000135 161.4390 198.6851 15.21174788 43905

Śledź CTC-1A w czasie rzeczywistym z AllMySat

Download on the App Store